#timestamp,LO_Frequency,Hit,StdDev 
1501707615.0,286047002.5,N,1.3
1501707615.9,286047002.5,N,1.3
1501707635.8,286047001.8,N,1.2
1501707655.6,286047000.1,N,1.3
1501707675.5,286047000.1,N,1.3
1501707695.3,286047000.5,N,1.3
1501707715.1,286047000.5,N,1.3
1501707735.9,286047000.6,N,1.2
1501707755.7,286047000.0,N,1.3
1501707775.5,286047002.7,N,1.3
1501707795.4,286047002.6,N,1.3
1501707815.2,286047002.0,N,1.2
1501707835.1,286047002.5,N,1.0
1501707836.0,286047002.5,N,1.0
1501707855.8,286047002.1,N,1.0
1501707875.6,286047002.3,N,1.1
1501707895.5,286047002.0,N,1.0
1501707915.3,286047003.9,P,1.2
1501707935.2,286047002.3,N,1.0
1501707955.9,286047002.3,N,0.9
1501707975.7,286047002.1,N,0.8
1501707995.6,286047002.3,N,0.7
1501708015.4,286047002.7,P,0.1
1501708035.3,286047001.2,P,0.6
1501708055.1,286047000.8,N,0.8
1501708075.8,286046998.9,N,1.4
1501708095.7,286046999.0,N,1.5
1501708115.5,286047001.0,N,1.4
1501708135.4,286047000.8,N,1.3
1501708155.2,286046998.2,N,1.5
1501708175.0,286046999.3,N,1.4
1501708175.9,286046999.3,N,1.4
1501708195.8,286046998.9,N,1.4
1501708215.6,286046998.6,N,1.4
1501708235.5,286046999.2,N,1.4
1501708255.3,286046999.4,N,1.4
1501708275.1,286046999.5,N,1.3
1501708295.9,286046999.3,N,1.3
1501708315.7,286046999.1,N,1.3
1501708335.6,286046996.8,N,1.4
1501708355.4,286046997.7,N,1.4
1501708375.2,286046995.3,P,2.2
1501708395.1,286046995.6,N,2.0
1501708396.0,286046995.6,N,1.8
1501708415.8,286046995.5,N,1.6
1501708435.7,286046995.6,N,1.5
1501708455.5,286046995.6,N,1.4
1501708475.3,286046994.9,P,0.6
1501708495.2,286047001.0,N,2.6
1501708515.0,286047001.0,N,2.8
1501708515.9,286047001.0,N,2.7
1501708535.8,286047001.2,N,2.6
1501708555.6,286046999.3,N,2.4
1501708575.4,286046999.0,N,2.3
1501708595.3,286047001.0,N,2.2
1501708615.1,286046998.8,N,2.1
1501708635.8,286046998.6,N,2.0
1501708655.7,286046998.6,N,2.0
1501708675.5,286046998.7,N,1.9
1501708695.4,286046998.4,N,1.8
1501708715.2,286046999.2,N,1.8
1501708735.0,286046998.6,N,1.7
1501708735.9,286046998.6,N,1.7
1501708755.8,286046998.8,N,1.6
1501708775.6,286046998.8,N,1.6
1501708795.5,286046999.0,N,1.5
1501708815.3,286046999.3,N,1.5
1501708835.1,286046999.1,N,1.5
1501708855.9,286046999.3,N,1.4
1501708875.7,286046996.7,N,1.5
1501708895.6,286046997.2,N,1.5
1501708915.4,286046996.7,N,1.5
1501708935.2,286046997.1,N,1.5
1501708955.1,286046995.1,P,1.8
1501708956.0,286046995.1,N,1.7
1501708975.8,286046997.3,N,1.5
1501708995.7,286046997.2,N,1.4
1501709015.5,286046997.4,N,1.3
1501709035.3,286046997.3,N,1.2
1501709055.2,286046997.5,N,1.2
1501709075.0,286046997.2,N,1.1
1501709105.9,286046997.7,E,nan
1501709115.9,286046996.6,N,0.0
1501709135.7,286047000.4,P,1.9
1501709155.5,286047000.0,N,1.7
1501709175.4,286047000.5,N,1.6
1501709195.2,286046998.9,N,1.5
1501709215.1,286046999.4,N,1.3
1501709216.0,286046999.4,N,1.2
1501709235.8,286046998.8,N,1.2
1501709255.6,286046999.1,N,1.1
1501709275.5,286046996.7,P,1.3
1501709295.3,286046996.6,N,1.2
1501709315.2,286046999.6,N,1.4
1501709335.0,286046997.0,N,1.3
1501709335.9,286046997.0,N,1.2
1501709355.8,286046999.0,N,1.2
1501709375.6,286046999.5,N,1.3
1501709395.4,286046999.5,N,1.3
1501709415.3,286046998.3,N,1.2
1501709435.1,286047000.7,N,1.4
1501709455.8,286046999.0,N,1.3
1501709475.7,286046998.9,N,1.3
1501709495.5,286046999.5,N,1.2
1501709515.4,286046999.5,N,1.2
1501709535.2,286046997.0,N,1.2
1501709555.0,286046997.7,N,1.2
1501709555.9,286046997.7,N,1.2
1501709575.8,286046997.7,N,1.2
1501709595.6,286046997.9,N,1.2
1501709615.5,286046997.5,N,1.1
1501709635.3,286046998.0,N,1.1
1501709655.1,286046995.3,P,1.5
1501709675.9,286046999.6,N,1.8
1501709695.7,286046999.5,N,1.7
1501709715.6,286046999.5,N,1.6
1501709735.4,286046999.2,N,1.5
1501709755.2,286046999.1,N,1.4
1501709775.1,286046998.7,N,1.3
1501709776.0,286046998.7,N,1.3
1501709795.8,286046998.2,N,1.2
1501709815.6,286046998.1,N,1.2
1501709835.5,286046998.5,N,1.1
1501709855.3,286046998.6,N,1.1
1501709875.2,286047001.2,N,1.2
1501709895.9,286046998.7,N,1.2
1501709915.7,286047001.1,N,1.3
1501709935.6,286047000.2,N,1.3
1501709955.4,286046999.9,N,1.3
1501709975.3,286047000.1,N,1.3
1501709995.1,286047002.4,N,1.4
1501709996.0,286047002.4,N,1.5
1501710015.8,286047000.1,N,1.5
1501710035.7,286047002.8,N,1.6
1501710055.5,286047000.2,N,1.6
1501710075.4,286047000.2,N,1.6
1501710095.2,286047002.7,N,1.7
1501710115.0,286046999.8,N,1.6
1501710115.9,286046999.8,N,1.6
1501710135.8,286047002.7,N,1.7
1501710155.6,286047002.2,N,1.7
1501710175.4,286047002.2,N,1.7
1501710195.3,286047002.0,N,1.5
1501710215.1,286047001.7,N,1.5
1501710235.9,286047004.0,N,1.6
1501710255.7,286047004.0,N,1.7
1501710275.5,286047004.4,N,1.8
1501710295.4,286047001.8,N,1.8
1501710315.2,286047004.0,N,1.9
1501710335.1,286047001.4,N,1.8
1501710336.0,286047001.4,N,1.7
1501710355.8,286047003.9,N,1.7
1501710375.6,286047001.6,N,1.6
1501710395.5,286047003.7,N,1.5
1501710415.3,286047004.2,N,1.6
1501710435.2,286047003.8,N,1.5
1501710455.9,286047003.8,N,1.5
1501710475.7,286047004.1,N,1.5
1501710495.6,286047003.8,N,1.5
1501710515.4,286047005.9,P,1.8
1501710535.3,286047002.4,N,1.7
1501710555.1,286047000.1,N,2.1
1501710556.0,286047000.1,N,2.1
1501710575.8,286047002.1,N,1.9
1501710595.7,286047002.1,N,1.8
1501710615.5,286047001.9,N,1.7
1501710635.3,286047002.3,N,1.6
1501710655.2,286047002.6,N,1.5
1501710675.0,286047001.9,N,1.4
1501710675.9,286047001.9,N,1.4
1501710695.8,286047002.3,N,1.3
1501710715.6,286047002.6,N,1.3
1501710735.4,286047001.9,N,1.2
1501710755.3,286047002.1,N,1.2
1501710775.1,286047001.8,N,1.2
1501710795.9,286047002.4,N,1.1
1501710815.7,286047002.6,N,1.1
1501710835.5,286047001.3,N,1.1
1501710855.4,286047004.4,P,1.1
1501710875.2,286047000.1,N,1.8
1501710895.1,286047000.8,N,1.6
1501710896.0,286047000.8,N,1.5
1501710915.8,286047000.5,N,1.5
1501710935.6,286047000.4,N,1.4
1501710955.5,286047002.4,N,1.4
1501710975.3,286047002.4,N,1.3
1501710995.2,286047002.6,N,1.3
1501711015.9,286047002.0,N,1.2
1501711035.7,286047001.9,N,1.2
1501711055.6,286047002.0,N,1.1
1501711075.4,286047002.2,N,1.1
1501711095.3,286047000.3,N,1.1
1501711115.1,286047002.4,N,1.1
1501711116.0,286047002.4,N,1.1
1501711135.8,286047002.7,N,1.1
1501711155.7,286046999.8,N,1.1
1501711175.5,286047002.5,N,1.1
1501711195.4,286047000.0,N,1.2
